Voltar ao catálogo

COSMOS 1275 DEB

AtivoPO
NORAD 17624·DEBRIS·🇷🇺 Russia

Lançado Jun 4, 1981 de Plesetsk Cosmodrome

Loading…

Próximas Passagens (próximas 24 horas)

TLE

AtualizadoSource: Space-Track

Época: Sep 14, 2026, 06:59 UTC

1 17624U 81053KT  26257.29115266  .00003472  00000-0  89679-3 0  9999
2 17624  82.8420 359.8586 0010362 243.2279 144.5472 14.49732538136891

Acompanhe COSMOS 1275 DEB em tempo real com AllMySat

Download on the App Store